TimeEDT,TemperatureF,Dew PointF,Humidity,Sea Level PressureIn,VisibilityMPH,Wind Direction,Wind SpeedMPH,Gust SpeedMPH,PrecipitationIn,Events,Conditions,WindDirDegrees,DateUTC
12:14 AM,76.3,65.3,69,29.79,10.0,SSW,11.5,-,N/A,,Clear,200,2013-05-21 04:14:00
12:34 AM,76.3,65.5,69,29.79,10.0,SSW,13.8,20.7,N/A,,Clear,200,2013-05-21 04:34:00
12:54 AM,76.3,65.5,69,29.78,10.0,SSW,12.7,18.4,N/A,,Clear,200,2013-05-21 04:54:00
1:14 AM,75.7,65.5,70,29.78,10.0,SSW,10.4,17.3,N/A,,Clear,210,2013-05-21 05:14:00
1:34 AM,75.4,65.5,71,29.77,10.0,SSW,9.2,-,N/A,,Clear,200,2013-05-21 05:34:00
1:54 AM,74.8,65.3,72,29.77,10.0,South,9.2,-,N/A,,Clear,190,2013-05-21 05:54:00
2:14 AM,73.9,65.3,74,29.77,10.0,South,6.9,-,N/A,,Clear,190,2013-05-21 06:14:00
2:34 AM,73.6,65.3,75,29.77,10.0,South,9.2,-,N/A,,Clear,170,2013-05-21 06:34:00
2:54 AM,73.4,65.3,76,29.76,10.0,South,9.2,-,N/A,,Clear,170,2013-05-21 06:54:00
3:14 AM,73.0,65.3,77,29.75,10.0,South,9.2,16.1,N/A,,Clear,180,2013-05-21 07:14:00
3:34 AM,73.6,65.7,76,29.74,10.0,South,8.1,-,N/A,,Mostly Cloudy,190,2013-05-21 07:34:00
3:54 AM,74.7,64.8,71,29.76,10.0,WSW,25.3,32.2,N/A,,Overcast,250,2013-05-21 07:54:00
4:14 AM,71.6,60.1,67,29.76,10.0,West,12.7,26.5,N/A,,Mostly Cloudy,270,2013-05-21 08:14:00
4:34 AM,70.3,59.7,69,29.76,10.0,West,9.2,17.3,N/A,,Mostly Cloudy,280,2013-05-21 08:34:00
4:54 AM,69.1,60.3,73,29.78,10.0,West,10.4,-,N/A,,Scattered Clouds,260,2013-05-21 08:54:00
5:14 AM,68.4,60.8,77,29.81,10.0,SW,10.4,18.4,0.05,Rain,Heavy Rain,220,2013-05-21 09:14:00
5:34 AM,64.9,62.1,90,29.81,7.0,SW,9.2,19.6,0.13,Rain,Rain,220,2013-05-21 09:34:00
5:54 AM,64.4,62.6,94,29.80,10.0,SSE,6.9,-,0.16,Rain,Rain,150,2013-05-21 09:54:00
6:14 AM,63.5,62.4,96,29.75,7.0,East,6.9,-,0.04,Rain,Light Rain,100,2013-05-21 10:14:00
6:34 AM,63.3,62.4,97,29.70,10.0,East,12.7,-,0.04,,Overcast,90,2013-05-21 10:34:00
6:54 AM,64.0,62.8,96,29.74,10.0,South,4.6,-,0.04,,Overcast,190,2013-05-21 10:54:00
7:14 AM,64.0,63.0,96,29.76,10.0,SW,5.8,-,N/A,,Overcast,220,2013-05-21 11:14:00
7:34 AM,64.4,63.3,96,29.74,10.0,South,3.5,-,N/A,,Scattered Clouds,180,2013-05-21 11:34:00
7:54 AM,65.5,64.0,95,29.74,10.0,South,3.5,-,N/A,,Clear,180,2013-05-21 11:54:00
8:14 AM,65.7,63.9,94,29.74,10.0,South,4.6,-,N/A,,Clear,190,2013-05-21 12:14:00
8:34 AM,67.1,64.2,90,29.77,10.0,SSW,12.7,-,N/A,,Clear,200,2013-05-21 12:34:00
8:54 AM,68.2,64.6,88,29.77,10.0,South,13.8,-,N/A,,Scattered Clouds,190,2013-05-21 12:54:00
9:14 AM,69.1,63.9,83,29.77,10.0,SSW,12.7,18.4,N/A,,Scattered Clouds,210,2013-05-21 13:14:00
9:34 AM,70.3,63.3,78,29.77,10.0,SSW,12.7,-,N/A,,Scattered Clouds,210,2013-05-21 13:34:00
9:54 AM,71.6,62.6,73,29.77,10.0,SW,13.8,-,N/A,,Clear,220,2013-05-21 13:54:00
10:14 AM,72.0,62.6,72,29.78,10.0,SW,16.1,21.9,N/A,,Scattered Clouds,220,2013-05-21 14:14:00
10:34 AM,71.2,62.6,74,29.78,10.0,SW,15.0,-,N/A,,Mostly Cloudy,220,2013-05-21 14:34:00
10:54 AM,70.5,62.6,76,29.78,10.0,SSW,13.8,18.4,N/A,,Mostly Cloudy,200,2013-05-21 14:54:00
11:14 AM,70.2,63.0,78,29.77,10.0,SSW,11.5,-,N/A,,Overcast,200,2013-05-21 15:14:00
11:34 AM,70.5,63.7,79,29.77,10.0,SSW,11.5,-,N/A,,Mostly Cloudy,200,2013-05-21 15:34:00
11:54 AM,71.6,63.3,75,29.77,10.0,SSW,9.2,-,N/A,,Scattered Clouds,200,2013-05-21 15:54:00
12:14 PM,71.6,63.5,76,29.77,10.0,SSW,12.7,-,N/A,,Mostly Cloudy,200,2013-05-21 16:14:00
12:34 PM,72.5,63.7,74,29.77,10.0,SSW,13.8,-,N/A,,Overcast,200,2013-05-21 16:34:00
12:54 PM,-9999,-9999,N/A,-9999,-9999.0,North,-9999.0,-,N/A,,Unknown,0,2013-05-21 16:54:00
1:14 PM,-9999,-9999,N/A,-9999,-9999.0,North,-9999.0,-,N/A,,Unknown,0,2013-05-21 17:14:00
1:33 PM,75.7,63.5,66,29.76,10.0,SW,8.1,-,N/A,,Mostly Cloudy,220,2013-05-21 17:33:00
1:54 PM,76.6,63.3,63,29.74,10.0,SSW,10.4,-,N/A,,Scattered Clouds,210,2013-05-21 17:54:00
2:14 PM,77.0,63.9,64,29.74,10.0,South,10.4,-,N/A,,Mostly Cloudy,190,2013-05-21 18:14:00
2:34 PM,77.7,63.5,61,29.74,10.0,SSW,10.4,-,N/A,,Mostly Cloudy,210,2013-05-21 18:34:00
2:54 PM,79.0,64.0,60,29.74,10.0,SSW,9.2,16.1,N/A,,Mostly Cloudy,210,2013-05-21 18:54:00
3:14 PM,79.5,62.2,55,29.74,10.0,SW,12.7,20.7,N/A,,Mostly Cloudy,230,2013-05-21 19:14:00
3:34 PM,80.2,62.4,54,29.73,10.0,SW,16.1,19.6,N/A,,Mostly Cloudy,220,2013-05-21 19:34:00
3:54 PM,80.4,63.5,56,29.73,10.0,SW,12.7,-,N/A,,Mostly Cloudy,220,2013-05-21 19:54:00
4:14 PM,79.9,62.4,55,29.73,10.0,SW,18.4,23.0,N/A,,Overcast,220,2013-05-21 20:14:00
4:34 PM,81.1,63.7,55,29.72,10.0,WSW,13.8,-,N/A,,Mostly Cloudy,250,2013-05-21 20:34:00
4:54 PM,80.2,62.2,54,29.72,10.0,WSW,18.4,23.0,N/A,,Scattered Clouds,240,2013-05-21 20:54:00
5:14 PM,80.8,62.1,53,29.72,10.0,SW,16.1,24.2,N/A,,Scattered Clouds,220,2013-05-21 21:14:00
5:34 PM,79.7,61.5,54,29.73,10.0,SW,16.1,20.7,N/A,,Scattered Clouds,230,2013-05-21 21:34:00
5:54 PM,80.1,62.2,54,29.72,10.0,SW,15.0,21.9,N/A,,Scattered Clouds,230,2013-05-21 21:54:00
6:14 PM,80.6,62.2,53,29.72,10.0,SW,18.4,21.9,N/A,,Scattered Clouds,230,2013-05-21 22:14:00
6:34 PM,80.1,62.2,54,29.71,10.0,WSW,13.8,-,N/A,,Clear,250,2013-05-21 22:34:00
6:54 PM,79.9,61.9,54,29.71,10.0,SW,12.7,16.1,N/A,,Clear,230,2013-05-21 22:54:00
7:14 PM,79.7,63.5,58,29.71,10.0,WSW,8.1,-,N/A,,Clear,240,2013-05-21 23:14:00
7:34 PM,78.4,62.8,58,29.71,10.0,SW,5.8,-,N/A,,Scattered Clouds,230,2013-05-21 23:34:00
7:54 PM,79.3,63.5,58,29.71,10.0,SSW,6.9,-,N/A,,Scattered Clouds,210,2013-05-21 23:54:00
8:14 PM,78.6,63.9,60,29.71,10.0,SSW,5.8,-,N/A,,Clear,210,2013-05-22 00:14:00
8:34 PM,77.5,64.0,63,29.70,10.0,SSW,4.6,-,N/A,,Clear,210,2013-05-22 00:34:00
8:54 PM,77.0,64.0,64,29.71,10.0,SSW,4.6,-,N/A,,Clear,210,2013-05-22 00:54:00
9:14 PM,76.1,63.7,65,29.71,10.0,SW,3.5,-,N/A,,Clear,220,2013-05-22 01:14:00
9:34 PM,74.5,63.9,69,29.72,10.0,SSW,3.5,-,N/A,,Clear,210,2013-05-22 01:34:00
9:54 PM,69.8,63.9,81,29.72,10.0,SSW,3.5,-,N/A,,Clear,200,2013-05-22 01:54:00
10:14 PM,72.9,64.0,74,29.73,10.0,SSW,5.8,-,N/A,,Clear,200,2013-05-22 02:14:00
10:34 PM,71.2,64.0,78,29.73,10.0,SSW,3.5,-,N/A,,Clear,200,2013-05-22 02:34:00
10:54 PM,69.8,63.7,81,29.73,10.0,Calm,Calm,-,N/A,,Clear,0,2013-05-22 02:54:00
11:14 PM,70.3,63.1,78,29.73,10.0,SW,4.6,-,N/A,,Clear,220,2013-05-22 03:14:00
11:34 PM,68.5,63.0,82,29.73,10.0,WSW,4.6,-,N/A,,Clear,240,2013-05-22 03:34:00
11:54 PM,67.1,62.6,85,29.72,10.0,SW,3.5,-,N/A,,Clear,230,2013-05-22 03:54:00